Weather Roundup
Issued by NWS Chicago, IL

Home | Current Version | Previous Version | Graphics & Text | Print | Product List | Glossary On
Versions: 1 2 3 4 5 6 7 8 9 10 11 12 13 14 15 16 17 18 19 20 21 22 23 24 25 26 27 28 29 30 31 32 33 34 35 36 37 38 39 40 41 42 43 44 45 46 47 48 49 50
000
NZUS59 KLOT 270103
HRRLOT

CHICAGO AREA WEATHER ROUNDUP
NATIONAL WEATHER SERVICE CHICAGO/ROMEOVILLE IL
800 PM CDT MON JUN 26 2017

NOTE: "FAIR" INDICATES FEW OR NO CLOUDS BELOW 12,000 FEET WITH NO
SIGNIFICANT WEATHER AND/OR OBSTRUCTIONS TO VISIBILITY.

* THESE STATIONS ARE NOT UNDER NWS QUALITY CONTROL. THEY ALSO MAY NOT
  REPORT WEATHER SUCH AS PRECIPITATION OR FOG.

ILZ005-006-012>014-019>023-270200-
NORTHEAST ILLINOIS

CITY           SKY/WX    TMP DP  RH WIND       PRES   REMARKS
OHARE          PTCLDY    65  42  43 NW17G25   30.04S
MIDWAY         PTCLDY    66  44  45 NW10      30.05R
AURORA         PTCLDY    64  44  48 N13       30.07R
LANSING*       CLOUDY    64  47  54 NE7       30.05R
JOLIET*        CLEAR     67  45  45 N9        30.06R
WAUKEGAN       PTCLDY    61  46  57 NW5       30.04S
DUPAGE AIRPORT PTCLDY    64  45  49 NW14      30.05S
WHEELING       PTCLDY    63  46  54 NW10      30.06S
MORRIS*        CLEAR     67  41  39 N6        30.05R
LEWIS AIRPORT* CLEAR     65  40  40 N13G18    30.06R
NORTHERLY ISL    N/A     65  41  41 NW9         N/A
$$

WIZ051-052-058>065-066-070>072-270200-
SOUTHEAST WISCONSIN

CITY           SKY/WX    TMP DP  RH WIND       PRES   REMARKS
MILWAUKEE      MOCLDY    63  46  54 NW13G18   30.04R
KENOSHA*       CLEAR     62  45  53 NW7       30.05R
RACINE*        PTCLDY    62  43  49 NW9       30.06R
WAUKESHA       MOCLDY    59  45  58 NW9       30.06R
$$

INZ001>003-010>013-019-020-270200-
NORTHWEST INDIANA

CITY           SKY/WX    TMP DP  RH WIND       PRES   REMARKS
GARY*          PTCLDY    64  48  55 N7        30.05S
MICHIGAN CITY* NOT AVBL
RENSSELAER*    NOT AVBL
VALPARAISO     MOCLDY    62  49  62 N8        30.06R
$$

LMZ740>746-270200-
SOUTHERN LAKE MICHIGAN

STATION/POSITION TIME  SKY/WX   TEMP WIND        PRES    VSBY
                                AIR  DIR/SP/G
                 (UTC)          (F)  (DEG/KT/KT) (MB)    (MI)
HARRISON CRIB    0040            65  310/ 19/ 21   N/A
BURNHAM HARBOR   0100            65                N/A
CALUMET HARBOR   0030            65  300/  7/ 11 1016.7S
BURNS HARBOR     0040            63  350/ 12/ 14 1017.6S
MICHIGAN CITY    0040            62  330/ 17/ 20   N/A
$$

ABBREVIATIONS USED IN REMARKS
   TC - TEMPERATURE IN CELSIUS
  WCI - WIND CHILL INDEX
   HX - HEAT INDEX
  VSB - VISIBILITY
$$



USA.gov is the U.S. government's official web portal to all federal, state and local government web resources and services.